EHI
0 0 0 0 0 0 0 0 0 0 0 0 0 0 0 0 0 0 0 0 0 0 0 0 0 0 0 0 0 0 0 0 0 0 0 0 0 0 0 0 0 0 0 0
0 0 0 0 0 0 0 0 0 0 0 0 0 0 0 0 0 0 0 0 0 0 0 0 0 0 0 0 0 0 0 0 0 0 0 0 0 0 0 0 0 0 0 0
0 0 0 0 0 0 0 0 0 0 0 0 0 0 0 0 0 0 0 0 0 0 0 0 0 0 0 0 0 0 0 0 0 0 0 0 0 0 0 0 0 0 0 0
0 0 0 0 0 0 0 0 0 0 0 0 0 0 0 0 0 0 0 0 0 0 0 0 0 0 0 0 0 0 0 0 0 0 0 0 0 0 0 0 0 0 0 0
0 0 0 0 0 0 0 0 0 0 0 0 0 0 0 0 0 0 0 0 0 0 0 0 0 0 0 0 0 0 0 0 0 0 0 0 0 0 0 0 0 0 0 0
0 0 0 0 0 0 0 0 0 0 0 0 0 0 0 0 0 0 0 0 0 0 0 0 0 0 0 0 0 0 0 0 0 0 0 0 0 0 0 0 0 0 0 0
0 0 0 0 0 0 0 0 0 0 0 0 0 0 0 0 0 0 0 0 0 0 0 0 0 0 0 0 0 0 0 0 0 0 0 0 0 0 0 0 0 0 0 0
0 0 0 0 0 0 0 0 0 0 0 0 0 0 0 0 0 0 0 0 0 0 0 0 0 0 0 0 0 0 0 0 0 0 0 0 0 0 0 0 0 0 0 0
0 0 0 0 0 0 0 0 0 0 0 0 0 0 0 0 0 0 0 0 0 0 0 0 0 0 0 0 0 0 0 0 0 0 0 0 0 0 0 0 0 0 0 0
0 0 0 0 0 0 0 0 0 0 0 0 0 0 0 0 0 0 0 0 0 0 0 0 0 0 0 0 0 0 0 0 0 0 0 0 0 0 0 0 0 0 0 0
0 0 0 0 0 0 0 0 0 0 0 0 0 0 0 0 0 0 0 0 0 0 0 0 0 0 0 0 0 0 0 0 0 0 0 0 0 0 0 0 0 0 0 0
0 0 0 0 0 0 0 0 0 0 0 0 0 0 0 0 0 0 0 0 0 0 0 0 0 0 0 0 0 0 0 0 0 0 0 0 0 0 0 0 0 0 0 0
0 0 0 0 0 0 0 0 0 0 0 0 0 0 0 0 0 0 0 0 0 0 0 0 0 0 0 0 0 0 0 0 0 0 0 0 0 0 0 0 0 0 0 0
0 0 0 0 0 0 0 0 0 0 0 0 0 0 0 0 0 0 0 0 0 0 0 0 0 0 0 0 0 0 0 0 0 0 0 0 0 0 0 0 0 0 0 0
0 0 0 0 0 0 0 0 0 0 0 0 0 0 0 0 0 0 0 0 0 0 0 0 0 0 0 0 0 0 0 0 0 0 0 0 0 0 0 0 0 0 0 0
0 0 0 0 0 0 0 0 0 0 0 0 0 0 0 0 0 0 0 0 0 0 0 0 0 0 0 0 0 0 0 0 0 0 0 0 0 0 0 0 0 0 0 0
0 0 0 0 0 0 0 0 0 0 0 0 0 0 0 0 0 0 0 0 0 0 0 0 0 0 0 0 0 0 0 0 0 0 0 0 0 0 0 0 0 0 0 0
0 0 0 0 0 0 0 0 0 0 0 0 0 0 0 0 0 0 0 0 0 0 0 0 0 0 0 0 0 0 0 0 0 0 0 0 0 0 0 0 0 0 0 0
0 0 0 0 0 0 0 0 0 0 0 0 0 0 0 0 0 0 0 0 0 0 0 0 0 0 0 0 0 0 0 0 0 0 0 0 0 0 0 0 0 0 0 0
0 0 0 0 0 0 0 0 0 0 0 0 0 0 0 0 0 0 0 0 0 0 0 0 0 0 0 0 0 0 0 0 0 0 0 0 0 0 0 0 0 0 0 0
0 0 0 0 0 0 0 0 0 0 0 0 0 0 0 0 0 0 0 0 0 0 0 0 0 0 0 0 0 0 0 0 0 0 0 0 0 0 0 0 0 0 0 0
0 0 0 0 0 0 0 0 0 0 0 0 0 0 0 0 0 0 0 0 0 0 0 0 0 0 0 0 0 0 0 0 0 0 0 0 0 0 0 0 0 0 0 0
0 0 0 0 0 0 0 0 0 0 0 0 0 0 0 0 0 0 0 0 0 0 0 0 0 0 0 0 0 0 0 0 0 0 0 0 0 0 0 0 0 0 0 0
0 0 0 0 0 0 0 0 0 0 0 0 0 0 0 0 0 0 0 0 0 0 0 0 0 0 0 0 0 0 0 0 0 0 0 0 0 0 0 0 0 0 0 0
0 0 0 0 0 0 0 0 0 0 0 0 0 0 0 0 0 0 0 0 0 0 0 0 0 0 0 0 0 0 0 0 0 0 0 0 0 0 0 0 0 0 0 0
0 0 0 0 0 0 0 0 0 0 0 0 0 0 0 0 0 0 0 0 0 0 0 0 0 0 0 0 0 0 0 0 0 0 0 0 0 0 0 0 0 0 0 0
Wind_Speed
4 3 5 6 7 6 5 6 7 4 1 3 6 7 5 4 4 4 3 4 4 4 4 5 5 5 5 5 5 5 5 5 4 3 3 3 2 2 2 2 3 4 3 4
3 6 5 3 4 6 6 7 6 3 1 2 5 6 5 5 6 6 5 5 5 4 4 5 5 5 5 5 5 5 5 4 4 3 2 2 2 2 2 2 3 3 3 3
5 1 2 4 4 5 7 6 6 4 2 3 3 6 6 5 5 4 4 4 5 6 6 6 5 4 4 5 5 4 4 5 4 3 3 3 2 2 2 2 2 2 3 3
4 3 2 4 4 5 6 2 4 3 2 4 4 5 4 5 5 5 5 5 5 5 5 5 5 5 4 4 4 4 4 4 3 3 4 4 3 2 2 1 2 2 3 3
3 1 2 4 3 3 2 2 3 4 4 4 4 4 6 3 4 5 5 5 5 5 6 6 5 5 4 4 4 4 4 4 4 3 3 3 2 2 2 2 2 2 2 2
2 1 0 2 2 1 0 1 2 2 1 5 7 6 5 3 4 4 4 5 5 4 5 5 4 4 4 4 4 4 4 4 4 3 3 3 3 3 3 2 2 1 1 1
3 2 0 1 1 0 0 2 0 1 3 6 4 5 5 2 1 3 4 4 4 5 5 5 5 5 4 4 4 4 4 4 4 3 3 3 3 3 3 3 2 2 1 1
2 3 3 1 1 2 3 3 4 4 4 2 2 5 4 2 3 4 4 3 3 3 3 4 5 4 4 4 4 4 4 3 3 3 2 2 2 2 2 2 2 2 1 1
2 2 1 1 1 1 2 3 1 1 2 3 5 3 2 3 3 3 3 2 2 2 3 3 3 3 4 4 4 5 5 4 3 3 3 2 2 2 2 1 1 1 1 0
2 2 1 1 1 1 1 1 1 2 3 5 5 4 3 2 2 2 2 2 1 2 3 3 2 3 3 3 3 4 4 4 3 3 2 2 2 1 1 1 1 1 0 0
2 1 1 1 3 3 2 1 2 3 3 3 3 2 1 3 3 3 2 1 1 1 2 2 2 2 2 2 3 3 3 3 3 3 2 2 2 2 2 1 1 1 0 0
1 1 3 2 2 2 1 2 3 3 4 3 3 3 2 3 3 3 2 1 1 1 1 2 2 1 1 2 2 2 3 3 3 3 2 2 2 2 2 2 1 1 1 1
1 0 1 1 0 1 1 2 1 1 1 3 4 4 0 2 3 2 2 1 1 1 1 1 1 1 1 1 2 2 2 3 2 2 2 2 2 2 2 2 1 1 1 2
1 2 4 5 3 2 4 4 3 2 4 5 7 5 4 2 2 2 2 1 0 1 1 1 1 0 1 1 1 2 2 2 2 2 2 2 2 2 2 2 2 2 2 2
0 3 5 7 6 4 6 7 6 7 8 7 7 6 5 3 2 2 2 1 0 0 1 1 1 0 0 0 1 1 1 1 2 2 2 2 2 2 1 1 2 2 2 3
0 3 3 6 6 5 7 8 9 9 9 10 9 8 4 2 1 1 2 1 2 2 1 1 1 1 1 1 0 0 0 1 1 2 2 2 2 2 2 2 2 2 3 3
3 2 2 5 3 3 7 8 9 6 5 5 9 7 3 2 1 1 2 3 3 3 2 2 2 2 1 1 1 1 1 1 1 2 2 2 2 2 2 2 2 3 3 3
3 2 2 3 2 7 6 1 3 5 4 4 3 3 3 2 2 2 2 2 3 3 3 2 1 1 1 1 1 0 1 1 1 2 2 2 2 2 2 2 3 3 3 4
2 3 2 2 4 6 3 1 1 3 4 3 4 4 3 3 2 2 2 1 2 3 3 3 1 1 1 1 1 1 1 1 2 2 2 2 2 3 3 3 4 3 3 4
1 1 2 3 4 6 4 2 1 1 4 2 1 3 3 3 3 4 3 3 3 3 2 2 1 0 0 1 1 1 1 2 2 3 3 2 3 3 4 4 4 4 4 5
1 2 4 5 5 5 3 3 1 2 5 3 2 3 3 3 5 4 4 4 3 3 2 1 0 0 1 0 1 1 2 3 2 2 2 3 3 3 4 4 4 4 4 4
4 3 4 3 5 7 1 1 2 4 3 3 3 3 3 4 4 4 4 4 3 2 2 1 0 1 1 0 1 1 2 2 1 2 2 3 3 3 3 3 4 4 4 4
4 4 3 5 5 2 1 2 2 2 3 4 4 4 3 4 5 5 4 3 2 2 1 1 0 1 2 1 1 2 2 1 1 2 3 3 3 3 4 4 4 4 3 4
2 1 2 4 4 3 2 2 2 3 4 5 4 4 4 4 5 4 4 3 2 2 1 1 0 1 2 2 1 2 2 1 1 2 3 3 3 3 3 3 3 3 3 4
2 2 3 5 4 3 2 3 4 4 4 4 4 4 4 4 4 3 3 3 2 2 2 1 1 1 2 2 2 2 1 1 1 2 3 3 3 3 3 3 3 4 4 5
1 3 4 5 3 3 5 4 4 4 4 4 4 5 4 3 3 2 2 2 2 2 2 1 1 1 2 2 2 2 2 1 2 2 2 2 2 2 3 3 3 5 6 8
Wind_Direction
189 199 212 215 220 246 271 265 266 277 174 209 237 240 226 204 201 206 191 172 169 162 137 130 130 130 128 127 125 124 116 115 119 122 118 114 105 90 75 67 65 59 54 47
193 227 234 246 248 252 261 268 271 290 14 235 259 258 236 206 203 201 193 183 172 156 139 132 127 134 139 136 134 131 126 123 125 130 124 122 120 105 96 79 68 61 56 48
213 224 221 236 242 247 247 248 263 266 296 247 279 280 227 206 196 190 181 175 168 162 157 149 141 141 143 141 144 140 133 128 127 127 111 106 91 87 77 75 69 55 56 53
237 250 239 226 232 242 251 278 284 260 242 249 198 267 243 192 187 196 191 179 172 154 149 151 152 156 155 150 144 136 135 126 120 124 128 137 137 128 130 126 97 69 60 56
229 218 228 231 236 241 263 319 283 262 245 270 227 242 272 184 201 203 189 175 162 158 155 157 159 160 152 144 143 139 133 127 130 131 134 143 126 115 119 116 107 89 74 67
252 315 286 266 307 242 246 311 290 266 236 251 222 211 265 218 209 183 171 164 162 157 151 148 145 139 141 142 139 139 138 133 136 138 135 136 133 131 130 128 130 125 109 81
237 223 102 33 51 189 187 117 116 225 219 241 198 205 242 227 155 142 151 160 158 153 152 151 150 153 151 148 148 146 144 144 143 142 141 142 138 146 153 154 156 148 130 82
239 242 180 190 179 197 218 184 182 215 228 251 222 223 238 148 108 92 93 110 121 135 149 153 159 160 159 157 156 155 156 153 152 153 148 142 136 144 142 140 147 159 167 178
281 270 82 101 19 140 210 226 247 275 282 262 231 225 230 110 98 98 97 106 137 157 155 150 150 153 157 163 168 170 164 158 162 161 154 151 148 135 136 137 118 128 155 193
327 281 258 49 46 307 281 238 138 210 226 250 251 220 223 175 152 126 127 141 150 152 151 150 152 157 162 164 168 165 163 161 160 158 167 166 148 136 131 146 143 137 126 29
340 219 256 182 191 196 183 200 220 239 245 227 253 253 346 151 151 145 137 114 140 144 152 152 152 155 151 144 149 160 159 153 154 158 161 153 154 155 145 156 169 176 205 216
332 280 254 230 99 35 191 204 185 199 251 235 249 257 349 67 82 99 106 116 137 145 128 132 147 143 139 151 157 162 157 157 162 161 159 158 162 163 166 181 192 202 220 231
124 157 295 278 46 8 288 274 253 244 258 240 233 243 339 52 56 65 75 75 115 121 102 101 115 134 143 152 155 164 166 165 158 154 159 161 172 183 195 201 203 217 235 245
106 213 213 233 255 217 250 249 229 199 224 247 240 246 273 314 340 345 349 15 86 132 121 119 125 152 178 173 169 168 168 156 153 150 163 185 201 206 207 209 218 227 236 243
98 245 247 267 271 251 250 247 225 216 227 234 254 259 263 275 271 286 311 349 15 156 128 168 192 208 208 198 173 151 151 149 157 162 183 208 215 217 218 220 230 242 249 256
189 259 283 276 261 254 263 254 238 234 237 248 264 271 282 292 14 10 353 337 312 304 279 260 228 211 226 228 225 138 161 172 162 175 206 219 215 219 221 225 233 245 252 255
199 214 245 265 277 301 263 240 227 226 228 225 245 258 308 319 327 302 301 294 281 298 288 270 244 225 221 222 208 212 223 199 176 195 219 224 222 230 237 244 249 247 247 252
190 206 236 267 285 244 243 195 191 207 239 234 252 287 292 284 294 302 288 280 296 305 297 289 266 241 226 228 201 217 222 201 205 214 225 230 228 244 252 249 251 252 252 251
197 193 228 237 251 261 265 301 188 215 262 268 260 289 324 335 326 308 345 339 298 294 292 286 271 245 231 202 177 162 236 224 224 232 232 233 232 241 247 251 255 260 260 261
45 179 214 237 250 255 257 307 334 121 264 316 299 285 304 340 294 286 336 327 313 312 308 306 295 174 203 230 159 167 228 229 239 246 249 247 244 245 249 252 259 263 262 265
175 209 218 236 247 258 270 291 40 193 255 328 318 290 290 260 255 289 319 319 317 318 321 336 349 289 255 227 151 211 240 245 248 259 268 267 262 258 256 258 262 259 264 265
192 205 210 215 234 250 307 78 187 233 313 332 327 318 303 293 301 308 313 318 323 325 329 344 3 319 317 316 177 238 260 263 250 254 266 269 269 268 266 257 263 261 257 259
206 202 202 208 224 235 184 196 251 318 314 316 318 314 306 298 298 301 305 307 307 308 309 324 320 309 316 318 235 244 269 271 262 262 265 266 272 270 263 255 259 260 254 256
223 231 233 257 257 256 252 284 313 314 301 307 308 303 298 285 289 294 300 303 304 307 299 314 323 299 305 309 295 260 264 259 254 265 272 270 268 269 267 264 258 257 254 257
240 194 234 250 271 297 274 290 298 302 306 308 309 303 294 287 288 288 292 292 290 301 312 304 263 274 286 303 306 297 275 225 244 263 272 276 276 272 274 274 266 265 259 259
232 204 222 244 254 261 278 298 306 302 304 307 312 315 313 295 286 293 291 292 297 302 311 311 303 292 289 302 307 305 295 254 243 266 275 275 274 273 275 278 290 289 280 282